Elko, NV

4:48 PM PST on November 23, 2017 (GMT -0800)
Elko Regional

Weather History for KEKO - May, 2013

Change the Weather History Date:

Thursday, May 9, 2013

  Actual Average Record
Temperature  
Mean Temperature 56 °F 52 °F  
Max Temperature 76 °F 67 °F 94 °F (1913)
Min Temperature 35 °F 36 °F 19 °F (1990)
Degree Days  
Heating Degree Days 9 14  
Month to date heating degree days 120 133  
Since 1 July heating degree days 6520 6704  
Cooling Degree Days 0 0  
Month to date cooling degree days 0 0  
Year to date cooling degree days 0 0  
Growing Degree Days 5 (Base 50)    
Moisture  
Dew Point 33 °F    
Average Humidity 49    
Maximum Humidity 79    
Minimum Humidity 19    
Precipitation  
Precipitation 0.00 in 0.03 in 0.66 in (1890)
Month to date precipitation T 0.29  
Year to date precipitation 2.20 4.22  
Snow  
Snow 0.00 in 0.10 in 1.00 in (1991)
Month to date snowfall 0.0 0.3  
Since 1 July snowfall 42.2 41.1  
Snow Depth 0.00 in    
Sea Level Pressure  
Sea Level Pressure 30.07 in    
Wind  
Wind Speed 6 mph (ENE)    
Max Wind Speed 22 mph    
Max Gust Speed 28 mph    
Visibility 10 miles    
Events      
T = Trace of Precipitation, MM = Missing Value Source: NWS Daily Summary

Daily Weather History Graph

Daily Weather History Graph

Search for Another Location

Airport or City:

Trip Planner

Search our weather history database for the weather conditions in past years. The results will help you decide how hot, cold, wet, or windy it might be!

Date:

Astronomy

May. 09, 2013 Rise Set
Actual Time 5:31 AM PDT 7:48 PM PDT
Civil Twilight 5:01 AM PDT 8:18 PM PDT
Nautical Twilight 4:23 AM PDT 8:56 PM PDT
Astronomical Twilight 3:41 AM PDT 9:38 PM PDT
Moon 5:19 AM PDT (5/9) 7:47 PM PDT (5/9)
Length of Visible Light 15h 17m
Length of Day
14h 16m
Waning Crescent, 0% of the Moon is Illuminated
May 9
Waning Crescent
May 9
New
May 17
First Quarter
May 24
Full
May 31
Last Quarter

Hourly Weather History & Observations

Time (PDT) Temp. Windchill Dew Point Humidity Pressure Visibility Wind Dir Wind Speed Gust Speed Precip Events Conditions
12:56 AM 42.1 °F - 34.0 °F 73% 30.06 in 10.0 mi Calm Calm - N/A   Clear
1:56 AM 41.0 °F - 32.0 °F 70% 30.07 in 10.0 mi Calm Calm - N/A   Partly Cloudy
2:56 AM 39.0 °F - 32.0 °F 76% 30.07 in 10.0 mi Calm Calm - N/A   Clear
3:56 AM 37.0 °F - 30.9 °F 79% 30.09 in 10.0 mi Calm Calm - N/A   Clear
4:56 AM 39.9 °F 37.8 °F 33.1 °F 77% 30.09 in 10.0 mi ENE 3.5 mph - N/A   Clear
5:56 AM 39.0 °F 35.7 °F 33.1 °F 79% 30.10 in 10.0 mi NE 4.6 mph - N/A   Clear
6:56 AM 41.0 °F 39.0 °F 34.0 °F 76% 30.12 in 10.0 mi East 3.5 mph - N/A   Clear
7:56 AM 48.0 °F - 39.0 °F 71% 30.11 in 10.0 mi Calm Calm - N/A   Clear
8:56 AM 55.0 °F - 39.0 °F 55% 30.11 in 10.0 mi Calm Calm - N/A   Clear
9:56 AM 64.9 °F - 37.0 °F 36% 30.07 in 10.0 mi NE 10.4 mph 16.1 mph N/A   Clear
10:56 AM 69.1 °F - 34.0 °F 27% 30.06 in 10.0 mi NE 16.1 mph 19.6 mph N/A   Clear
11:18 AM 69.8 °F - 35.6 °F 28% 30.15 in 5.0 mi NE 9.2 mph 17.3 mph N/A   Haze
11:56 AM 69.1 °F - 33.1 °F 26% 30.06 in 10.0 mi East 8.1 mph - N/A   Scattered Clouds
12:56 PM 72.0 °F - 30.9 °F 22% 30.05 in 10.0 mi East 15.0 mph 23.0 mph N/A   Scattered Clouds
1:10 PM 66.2 °F - 35.6 °F 32% 30.15 in 10.0 mi ESE 21.9 mph 27.6 mph N/A   Mostly Cloudy
1:56 PM 73.0 °F - 34.0 °F 24% 30.05 in 10.0 mi ESE 12.7 mph 20.7 mph N/A   Clear
2:56 PM 72.0 °F - 32.0 °F 23% 30.04 in 10.0 mi NNE 8.1 mph - N/A   Scattered Clouds
3:56 PM 73.9 °F - 28.9 °F 19% 30.02 in 10.0 mi ENE 9.2 mph 21.9 mph N/A   Scattered Clouds
4:56 PM 73.9 °F - 30.0 °F 20% 30.01 in 10.0 mi NE 15.0 mph 24.2 mph N/A   Scattered Clouds
5:56 PM 73.0 °F - 28.9 °F 20% 30.01 in 10.0 mi NE 12.7 mph 17.3 mph N/A   Clear
6:56 PM 72.0 °F - 28.0 °F 20% 30.01 in 10.0 mi NE 9.2 mph - N/A   Clear
7:56 PM 66.9 °F - 28.9 °F 24% 30.03 in 10.0 mi NNE 8.1 mph - N/A   Clear
8:56 PM 63.0 °F - 30.9 °F 30% 30.05 in 10.0 mi ENE 3.5 mph - N/A   Mostly Cloudy
9:56 PM 59.0 °F - 32.0 °F 36% 30.05 in 10.0 mi ESE 3.5 mph - N/A   Clear
10:56 PM 57.0 °F - 33.1 °F 40% 30.06 in 10.0 mi East 4.6 mph - N/A   Clear
11:56 PM 48.9 °F - 33.1 °F 54% 30.11 in 10.0 mi SSW 3.5 mph - N/A   Mostly Cloudy